User: anonymous   Login
Location: Caribou
(46.8667°N, 68.0167°W)
Time: 18:42:05
(UTC-04:00)
Language:

SL-08 RB Rocket - Orbit

View from above orbital plane
View from above orbital plane
View from above satellite
View from above satellite

Ground track
Ground track

The orbit data is extracted from the following two-line orbital elements,

1 26387U 00033D   17231.18351921  .00000066  00000-0  19786-4 0  9993
2 26387  97.9657 293.8414 0027550 134.8568 245.7493 14.68298660917120
Epoch (UTC): 19 August 2017 04:24:16
Eccentricity: 0.0027550
inclination: 97.9657°
perigee height: 647 km
apogee height: 686 km
right ascension of ascending node: 293.8414°
argument of perigee: 134.8568°
revolutions per day: 14.68298660
mean anomaly at epoch: 245.7493°
orbit number at epoch: 91712

The dashed part of the orbit path shows where the satellite is in the earth's shadow,  

DLR